Havre, MT

8:02 AM MST on December 09, 2019 (GMT -0700)
Havre City-County

Weather History for KHVR - November, 2019

Change the Weather History Date:

Monday, November 18, 2019

  Actual Average Record
Temperature  
Mean Temperature 45 °F 29 °F  
Max Temperature 57 °F 40 °F 69 °F (2008)
Min Temperature 33 °F 18 °F -29 °F (1903)
Degree Days  
Heating Degree Days 20 36  
Month to date heating degree days 685 576  
Since 1 July heating degree days 1856 1575  
Cooling Degree Days 0 0  
Month to date cooling degree days 0 0  
Year to date cooling degree days 315 387  
Moisture  
Dew Point 31 °F    
Average Humidity 64    
Maximum Humidity 82    
Minimum Humidity 34    
Precipitation  
Precipitation 0.00 in 0.01 in 0.40 in (1941)
Month to date precipitation 0.73 0.27  
Year to date precipitation 11.16 10.64  
Snow  
Snow 0.00 in 0.20 in 4.00 in (1942)
Month to date snowfall 13.2 2.8  
Since 1 July snowfall 24.6 5.1  
Since 1 September snowfall 24.6 5.1  
Snow Depth 0.00 in    
Sea Level Pressure  
Sea Level Pressure 29.87 in    
Wind  
Wind Speed 11 mph ()    
Max Wind Speed 23 mph    
Max Gust Speed 32 mph    
Visibility 10.0 miles    
Events      
T = Trace of Precipitation, MM = Missing Value Source: Averaged Metar Reports

Daily Weather History Graph

Daily Weather History Graph

Search for Another Location

Airport or City:

Astronomy

Nov. 18, 2019 Rise Set
Actual Time 7:31 AM MST 4:36 PM MST
Civil Twilight 6:56 AM MST 5:11 PM MST
Nautical Twilight 6:18 AM MST 5:49 PM MST
Astronomical Twilight 5:41 AM MST 6:26 PM MST
Moon 10:24 PM MST (11/18) 1:07 PM MST (11/18)
Length of Visible Light 10h 14m
Length of Day
9h 04m
Waning Gibbous, 62% of the Moon is Illuminated
Nov 18
Waning Gibbous
Nov 19
Last Quarter
Nov 26
New
Dec 3
First Quarter
Dec 11
Full

Hourly Weather History & Observations

Time (MST) Temp. Windchill Dew Point Humidity Pressure Visibility Wind Dir Wind Speed Gust Speed Precip Events Conditions
12:53 AM 44.1 °F 36.2 °F 36.0 °F 73% 29.76 in 10.0 mi SW 18.4 mph - N/A   Clear
1:53 AM 42.1 °F 35.2 °F 35.1 °F 76% 29.80 in 10.0 mi SW 12.7 mph - N/A   Clear
2:53 AM 48.0 °F - 34.0 °F 58% 29.81 in 10.0 mi West 21.9 mph - N/A   Clear
3:53 AM 45.0 °F 41.2 °F 33.1 °F 63% 29.83 in 10.0 mi NW 6.9 mph 18.4 mph N/A   Clear
4:53 AM 46.0 °F 38.8 °F 33.1 °F 61% 29.84 in 10.0 mi WNW 18.4 mph - N/A   Clear
5:53 AM 43.0 °F 36.4 °F 32.0 °F 65% 29.86 in 10.0 mi NW 12.7 mph - N/A   Clear
6:53 AM 37.0 °F 31.6 °F 30.0 °F 76% 29.91 in 10.0 mi East 6.9 mph - N/A   Clear
7:53 AM 34.0 °F 26.6 °F 28.9 °F 82% 29.91 in 10.0 mi SE 9.2 mph - N/A   Clear
8:53 AM 41.0 °F 37.1 °F 33.1 °F 73% 29.92 in 10.0 mi SE 5.8 mph - N/A   Clear
9:53 AM 48.0 °F - 34.0 °F 58% 29.91 in 10.0 mi SW 9.2 mph - N/A   Clear
10:53 AM 51.1 °F - 32.0 °F 48% 29.90 in 10.0 mi SW 19.6 mph - N/A   Clear
11:53 AM 54.0 °F - 33.1 °F 45% 29.89 in 10.0 mi SW 17.3 mph - N/A   Clear
12:53 PM 57.0 °F - 28.9 °F 34% 29.87 in 10.0 mi WNW 10.4 mph - N/A   Clear
1:53 PM 54.0 °F - 28.9 °F 38% 29.90 in 10.0 mi NW 11.5 mph - N/A   Clear
2:53 PM 50.0 °F - 30.9 °F 48% 29.88 in 10.0 mi NNE 8.1 mph - N/A   Clear
3:53 PM 46.0 °F 41.4 °F 33.1 °F 61% 29.91 in 10.0 mi ENE 9.2 mph - N/A   Clear
4:53 PM 42.1 °F 36.6 °F 32.0 °F 67% 29.91 in 10.0 mi East 9.2 mph - N/A   Clear
5:53 PM 39.9 °F 33.9 °F 32.0 °F 73% 29.91 in 10.0 mi East 9.2 mph - N/A   Clear
6:53 PM 39.0 °F 33.4 °F 30.9 °F 73% 29.92 in 10.0 mi East 8.1 mph - N/A   Clear
8:53 PM 36.0 °F 31.1 °F 28.0 °F 73% 29.89 in 10.0 mi ENE 5.8 mph - N/A   Clear
9:53 PM 37.0 °F 32.4 °F 28.0 °F 70% 29.87 in 10.0 mi ENE 5.8 mph - N/A   Mostly Cloudy
10:53 PM 35.1 °F 27.9 °F 28.0 °F 76% 29.86 in 10.0 mi ENE 9.2 mph - N/A   Clear
11:53 PM 35.1 °F 27.9 °F 28.0 °F 76% 29.83 in 10.0 mi ENE 9.2 mph - N/A   Clear